******** Week 148 almanac for PRN-1 ******** ID: 1 Health: 0 Eccentricity: 0.01137447357 Time of Applicability(s): 589824 Orbital Inclination(rad): 0.9866516491 Rate of Right Ascen(r/s): -7.943188008e-09 SQRT(A) (m 1/2): 5153.623047 Right Ascen at Week(rad): -1.788779641 Argument of Perigee(rad): 0.8814903006 Mean Anom(rad): -1.267815273 Af0(s): 0.0003421681396 Af1(s/s): -1.091394e-11 week: 148 ******** Week 148 almanac for PRN-2 ******** ID: 2 Health: 0 Eccentricity: 0.02068090439 Time of Applicability(s): 589824 Orbital Inclination(rad): 0.9650021468 Rate of Right Ascen(r/s): -8.091765626e-09 SQRT(A) (m 1/2): 5153.640625 Right Ascen at Week(rad): -1.878020172 Argument of Perigee(rad): -1.443708865 Mean Anom(rad): -1.121241087 Af0(s): -0.0005140058838 Af1(s/s): 0 week: 148 ******** Week 148 almanac for PRN-3 ******** ID: 3 Health: 0 Eccentricity: 0.003890037537 Time of Applicability(s): 589824 Orbital Inclination(rad): 0.9725701848 Rate of Right Ascen(r/s): -7.703178011e-09 SQRT(A) (m 1/2): 5153.639648 Right Ascen at Week(rad): -0.7532602176 Argument of Perigee(rad): 0.9592581831 Mean Anom(rad): -2.423017031 Af0(s): -9.345561523e-05 Af1(s/s): -1.818989e-11 week: 148 ******** Week 148 almanac for PRN-4 ******** ID: 4 Health: 0 Eccentricity: 0.00169467926 Time of Applicability(s): 589824 Orbital Inclination(rad): 0.9614847768 Rate of Right Ascen(r/s): -7.657461821e-09 SQRT(A) (m 1/2): 5153.602539 Right Ascen at Week(rad): 0.3276854107 Argument of Perigee(rad): -3.064471921 Mean Anom(rad): 0.516696861 Af0(s): -0.000149981189 Af1(s/s): 3.637979e-12 week: 148 ******** Week 148 almanac for PRN-5 ******** ID: 5 Health: 0 Eccentricity: 0.005878925323 Time of Applicability(s): 589824 Orbital Inclination(rad): 0.9595493245 Rate of Right Ascen(r/s): -7.851755628e-09 SQRT(A) (m 1/2): 5153.620117 Right Ascen at Week(rad): -0.7936260831 Argument of Perigee(rad): 1.008659031 Mean Anom(rad): 1.385680499 Af0(s): -5.652557373e-05 Af1(s/s): 0 week: 148 ******** Week 148 almanac for PRN-6 ******** ID: 6 Health: 0 Eccentricity: 0.002692699432 Time of Applicability(s): 589824 Orbital Inclination(rad): 0.9860224773 Rate of Right Ascen(r/s): -7.943188008e-09 SQRT(A) (m 1/2): 5153.621094 Right Ascen at Week(rad): -1.797052127 Argument of Perigee(rad): -0.9620422683 Mean Anom(rad): -0.936076198 Af0(s): 0.0001575179321 Af1(s/s): 1.091394e-11 week: 148 ******** Week 148 almanac for PRN-7 ******** ID: 7 Health: 0 Eccentricity: 0.01553535461 Time of Applicability(s): 589824 Orbital Inclination(rad): 0.950627069 Rate of Right Ascen(r/s): -7.977475151e-09 SQRT(A) (m 1/2): 5153.628906 Right Ascen at Week(rad): 1.346591703 Argument of Perigee(rad): -2.291566937 Mean Anom(rad): -1.937163071 Af0(s): 0.0002449441528 Af1(s/s): 3.637979e-12 week: 148 ******** Week 148 almanac for PRN-8 ******** ID: 8 Health: 0 Eccentricity: 0.007278442383 Time of Applicability(s): 589824 Orbital Inclination(rad): 0.9650800442 Rate of Right Ascen(r/s): -7.817468486e-09 SQRT(A) (m 1/2): 5153.674805 Right Ascen at Week(rad): -2.868430224 Argument of Perigee(rad): 0.1019194662 Mean Anom(rad): 0.9994772419 Af0(s): -4.446678467e-05 Af1(s/s): 0 week: 148 ******** Week 148 almanac for PRN-9 ******** ID: 9 Health: 0 Eccentricity: 0.002259731293 Time of Applicability(s): 589824 Orbital Inclination(rad): 0.9544979737 Rate of Right Ascen(r/s): -7.748894201e-09 SQRT(A) (m 1/2): 5153.570801 Right Ascen at Week(rad): 0.2747698147 Argument of Perigee(rad): 1.869593764 Mean Anom(rad): 1.360175073 Af0(s): -0.0002803668457 Af1(s/s): 0 week: 148 ******** Week 148 almanac for PRN-10 ******** ID: 10 Health: 0 Eccentricity: 0.007498264313 Time of Applicability(s): 589824 Orbital Inclination(rad): 0.9723964136 Rate of Right Ascen(r/s): -7.668890868e-09 SQRT(A) (m 1/2): 5153.637695 Right Ascen at Week(rad): -0.7560491714 Argument of Perigee(rad): -2.515990274 Mean Anom(rad): 2.984509427 Af0(s): -0.0002517272217 Af1(s/s): -1.091394e-11 week: 148 ******** Week 148 almanac for PRN-11 ******** ID: 11 Health: 255 Eccentricity: 0.0002694129944 Time of Applicability(s): 589824 Orbital Inclination(rad): 0.9617484297 Rate of Right Ascen(r/s): -8.183198006e-09 SQRT(A) (m 1/2): 5153.71875 Right Ascen at Week(rad): -1.744929737 Argument of Perigee(rad): 2.872781622 Mean Anom(rad): 0.8500406984 Af0(s): -7.235273437e-05 Af1(s/s): 1.091394e-11 week: 148 ******** Week 148 almanac for PRN-12 ******** ID: 12 Health: 0 Eccentricity: 0.008679866791 Time of Applicability(s): 589824 Orbital Inclination(rad): 0.9703171505 Rate of Right Ascen(r/s): -7.600316584e-09 SQRT(A) (m 1/2): 5153.557617 Right Ascen at Week(rad): 2.459578654 Argument of Perigee(rad): 1.246407702 Mean Anom(rad): -2.591043729 Af0(s): -0.0001341540283 Af1(s/s): -7.275958e-12 week: 148 ******** Week 148 almanac for PRN-13 ******** ID: 13 Health: 0 Eccentricity: 0.005802631378 Time of Applicability(s): 589824 Orbital Inclination(rad): 0.9688910278 Rate of Right Ascen(r/s): -7.611745631e-09 SQRT(A) (m 1/2): 5153.623535 Right Ascen at Week(rad): 0.4275162513 Argument of Perigee(rad): 0.9589495893 Mean Anom(rad): 0.4261328223 Af0(s): 0.0002057530884 Af1(s/s): 7.275958e-12 week: 148 ******** Week 148 almanac for PRN-14 ******** ID: 14 Health: 0 Eccentricity: 0.001431465149 Time of Applicability(s): 589824 Orbital Inclination(rad): 0.9537070148 Rate of Right Ascen(r/s): -7.748894201e-09 SQRT(A) (m 1/2): 5153.598633 Right Ascen at Week(rad): 2.428330911 Argument of Perigee(rad): 3.018665591 Mean Anom(rad): -2.526002719 Af0(s): -6.556966553e-05 Af1(s/s): -3.637979e-12 week: 148 ******** Week 148 almanac for PRN-15 ******** ID: 15 Health: 0 Eccentricity: 0.01393175125 Time of Applicability(s): 589824 Orbital Inclination(rad): 0.9303677368 Rate of Right Ascen(r/s): -7.943188008e-09 SQRT(A) (m 1/2): 5153.681641 Right Ascen at Week(rad): 0.1688371311 Argument of Perigee(rad): 1.074601105 Mean Anom(rad): 0.002091247247 Af0(s): -6.632333984e-05 Af1(s/s): 3.637979e-12 week: 148 ******** Week 148 almanac for PRN-16 ******** ID: 16 Health: 0 Eccentricity: 0.01275253296 Time of Applicability(s): 589824 Orbital Inclination(rad): 0.97028719 Rate of Right Ascen(r/s): -7.577458489e-09 SQRT(A) (m 1/2): 5153.557617 Right Ascen at Week(rad): 2.478196148 Argument of Perigee(rad): 0.7075366545 Mean Anom(rad): 1.838051284 Af0(s): -0.0003700540894 Af1(s/s): -3.637979e-12 week: 148 ******** Week 148 almanac for PRN-17 ******** ID: 17 Health: 0 Eccentricity: 0.01362419128 Time of Applicability(s): 589824 Orbital Inclination(rad): 0.9801741755 Rate of Right Ascen(r/s): -7.703178011e-09 SQRT(A) (m 1/2): 5153.71582 Right Ascen at Week(rad): -2.786617291 Argument of Perigee(rad): -1.499182344 Mean Anom(rad): 0.9074477573 Af0(s): 0.0004537119385 Af1(s/s): 3.637979e-12 week: 148 ******** Week 148 almanac for PRN-18 ******** ID: 18 Health: 0 Eccentricity: 0.002093315124 Time of Applicability(s): 589824 Orbital Inclination(rad): 0.9704429849 Rate of Right Ascen(r/s): -8.103194673e-09 SQRT(A) (m 1/2): 5153.571289 Right Ascen at Week(rad): -1.780920237 Argument of Perigee(rad): 3.108531923 Mean Anom(rad): -1.069881193 Af0(s): 0.000190679602 Af1(s/s): -7.275958e-12 week: 148 ******** Week 148 almanac for PRN-19 ******** ID: 19 Health: 0 Eccentricity: 0.008968830109 Time of Applicability(s): 589824 Orbital Inclination(rad): 0.9789158319 Rate of Right Ascen(r/s): -7.737465153e-09 SQRT(A) (m 1/2): 5153.64209 Right Ascen at Week(rad): -2.741750975 Argument of Perigee(rad): 2.00731423 Mean Anom(rad): -2.965303957 Af0(s): 9.345561523e-05 Af1(s/s): 3.637979e-12 week: 148 ******** Week 148 almanac for PRN-20 ******** ID: 20 Health: 0 Eccentricity: 0.005169868469 Time of Applicability(s): 589824 Orbital Inclination(rad): 0.9416868372 Rate of Right Ascen(r/s): -8.057478483e-09 SQRT(A) (m 1/2): 5153.696289 Right Ascen at Week(rad): -0.9076181579 Argument of Perigee(rad): 3.129906163 Mean Anom(rad): -0.2478888237 Af0(s): 0.0004084914795 Af1(s/s): 0 week: 148 ******** Week 148 almanac for PRN-21 ******** ID: 21 Health: 0 Eccentricity: 0.02459621429 Time of Applicability(s): 589824 Orbital Inclination(rad): 0.9592497188 Rate of Right Ascen(r/s): -8.126052768e-09 SQRT(A) (m 1/2): 5153.53125 Right Ascen at Week(rad): -1.879635421 Argument of Perigee(rad): -1.007010076 Mean Anom(rad): 1.091956884 Af0(s): 0.0001251099365 Af1(s/s): 0 week: 148 ******** Week 148 almanac for PRN-22 ******** ID: 22 Health: 0 Eccentricity: 0.01288318634 Time of Applicability(s): 589824 Orbital Inclination(rad): 0.9616166033 Rate of Right Ascen(r/s): -7.691748963e-09 SQRT(A) (m 1/2): 5153.604004 Right Ascen at Week(rad): 0.3759818371 Argument of Perigee(rad): -1.873033237 Mean Anom(rad): 0.7815946703 Af0(s): 0.0001680693726 Af1(s/s): 7.275958e-12 week: 148 ******** Week 148 almanac for PRN-23 ******** ID: 23 Health: 0 Eccentricity: 0.001973152161 Time of Applicability(s): 589824 Orbital Inclination(rad): 0.9674409366 Rate of Right Ascen(r/s): -7.748894201e-09 SQRT(A) (m 1/2): 5153.658691 Right Ascen at Week(rad): -0.7808932187 Argument of Perigee(rad): 2.957724684 Mean Anom(rad): -1.976870928 Af0(s): 1.507348633e-06 Af1(s/s): -3.637979e-12 week: 148 ******** Week 148 almanac for PRN-24 ******** ID: 24 Health: 0 Eccentricity: 0.01233386993 Time of Applicability(s): 589824 Orbital Inclination(rad): 0.934160744 Rate of Right Ascen(r/s): -8.183198006e-09 SQRT(A) (m 1/2): 5153.627441 Right Ascen at Week(rad): 1.263855985 Argument of Perigee(rad): 0.8071851101 Mean Anom(rad): -0.9711394186 Af0(s): 0.0002170582031 Af1(s/s): -3.637979e-12 week: 148 ******** Week 148 almanac for PRN-25 ******** ID: 25 Health: 0 Eccentricity: 0.01049566269 Time of Applicability(s): 589824 Orbital Inclination(rad): 0.9576977617 Rate of Right Ascen(r/s): -7.748894201e-09 SQRT(A) (m 1/2): 5153.662598 Right Ascen at Week(rad): 2.382891599 Argument of Perigee(rad): 0.9806698734 Mean Anom(rad): -2.843575691 Af0(s): 0.0002245949463 Af1(s/s): 3.637979e-12 week: 148 ******** Week 148 almanac for PRN-26 ******** ID: 26 Health: 0 Eccentricity: 0.00687122345 Time of Applicability(s): 589824 Orbital Inclination(rad): 0.9385110176 Rate of Right Ascen(r/s): -7.908900866e-09 SQRT(A) (m 1/2): 5153.644531 Right Ascen at Week(rad): 2.335947143 Argument of Perigee(rad): 0.368833247 Mean Anom(rad): 2.787000038 Af0(s): 0.0001447054687 Af1(s/s): 3.637979e-12 week: 148 ******** Week 148 almanac for PRN-27 ******** ID: 27 Health: 0 Eccentricity: 0.01020765305 Time of Applicability(s): 589824 Orbital Inclination(rad): 0.9737745994 Rate of Right Ascen(r/s): -7.760323248e-09 SQRT(A) (m 1/2): 5153.60791 Right Ascen at Week(rad): -2.849035629 Argument of Perigee(rad): 0.6375386693 Mean Anom(rad): 0.953896366 Af0(s): 9.19482666e-05 Af1(s/s): 1.818989e-11 week: 148 ******** Week 148 almanac for PRN-29 ******** ID: 29 Health: 0 Eccentricity: 0.001826763153 Time of Applicability(s): 589824 Orbital Inclination(rad): 0.9821815332 Rate of Right Ascen(r/s): -7.703178011e-09 SQRT(A) (m 1/2): 5153.711914 Right Ascen at Week(rad): -2.77361628 Argument of Perigee(rad): 2.260338668 Mean Anom(rad): 1.076238075 Af0(s): -0.0003790981811 Af1(s/s): -3.637979e-12 week: 148 ******** Week 148 almanac for PRN-30 ******** ID: 30 Health: 0 Eccentricity: 0.005504608154 Time of Applicability(s): 589824 Orbital Inclination(rad): 0.9357965907 Rate of Right Ascen(r/s): -8.160339911e-09 SQRT(A) (m 1/2): 5153.512207 Right Ascen at Week(rad): 1.35977098 Argument of Perigee(rad): -2.745280329 Mean Anom(rad): -1.901933195 Af0(s): -0.0004054767822 Af1(s/s): -3.637979e-12 week: 148 ******** Week 148 almanac for PRN-31 ******** ID: 31 Health: 0 Eccentricity: 0.01045417786 Time of Applicability(s): 589824 Orbital Inclination(rad): 0.9548575004 Rate of Right Ascen(r/s): -7.966046103e-09 SQRT(A) (m 1/2): 5153.624023 Right Ascen at Week(rad): 1.364681516 Argument of Perigee(rad): 0.3751732765 Mean Anom(rad): -2.389894881 Af0(s): -0.0001296319824 Af1(s/s): 0 week: 148 ******** Week 148 almanac for PRN-32 ******** ID: 32 Health: 0 Eccentricity: 0.00555896759 Time of Applicability(s): 589824 Orbital Inclination(rad): 0.958350902 Rate of Right Ascen(r/s): -7.714607058e-09 SQRT(A) (m 1/2): 5153.722168 Right Ascen at Week(rad): 0.2859589611 Argument of Perigee(rad): -2.355730477 Mean Anom(rad): 1.60199913 Af0(s): -5.275720215e-05 Af1(s/s): -7.275958e-12 week: 148